Location: Alafon
(8.4500°N, 4.2333°E)
Time: 02:49:30
(UTC+00:00)

Vanguard 2 - Pass Details

Date: 08 August 2021
Orbit: 553 x 2937 km, 32.9° (Epoch: 27 September)

Event Time Altitude Azimuth Distance (km) Brightness Sun altitude
Rises 08:30:36 0° 308° (NW) 3,342 10.5 41.1°
Reaches altitude 10° 08:32:40 10° 311° (NW) 2,604 10.1 41.6°
Maximum altitude 08:38:57 73° 35° (NE) 1,319 9.8 43.1°
Drops below altitude 10° 08:49:46 10° 119° (ESE) 4,334 12.0 45.7°
Sets 08:54:09 0° 121° (ESE) 5,715 12.4 46.8°
